This is the latest recevied weather packets stored in our database for station/object WA4IKQ. If no packets are shown the sender has not sent any weather packets the latest 10 day(s).
| Time | Temp. | Humidity | Pressure | Rain* | Wind** | Luminosity | Snow |
|---|---|---|---|---|---|---|---|
| 1777069590 | 27.78° C | 48% | 1011.1 hPa | 0 mm | 2.24 m/s, 117° | - | - |
| 1777069484 | 27.78° C | 48% | 1011.1 hPa | 0 mm | 2.24 m/s, 117° | - | - |
| 1777069318 | 27.78° C | 48% | 1011 hPa | 0 mm | 0.89 m/s, 114° | - | - |
| 1777069181 | 27.78° C | 48% | 1011 hPa | 0 mm | 0.89 m/s, 114° | - | - |
| 1777068993 | 27.78° C | 48% | 1010.9 hPa | 0 mm | 1.34 m/s, 82° | - | - |
| 1777068882 | 27.78° C | 48% | 1010.9 hPa | 0 mm | 1.34 m/s, 82° | - | - |
| 1777068693 | 27.78° C | 48% | 1011 hPa | 0 mm | 1.34 m/s, 72° | - | - |
| 1777068659 | 27.78° C | 48% | 1011 hPa | 0 mm | 1.34 m/s, 72° | - | - |
| 1777068582 | 27.78° C | 48% | 1011 hPa | 0 mm | 1.34 m/s, 72° | - | - |
| 1777068484 | 28.33° C | 47% | 1010.9 hPa | 0 mm | 2.68 m/s, 120° | - | - |
| 1777067794 | 28.89° C | 45% | 1010.8 hPa | 0 mm | 1.79 m/s, 53° | - | - |
| 1777067683 | 28.89° C | 45% | 1010.8 hPa | 0 mm | 1.79 m/s, 53° | - | - |
| 1777067081 | 29.44° C | 43% | 1010.9 hPa | 0 mm | 1.34 m/s, 114° | - | - |
| 1777067020 | 30° C | 42% | 1010.8 hPa | 0 mm | 2.68 m/s, 80° | - | - |
| 1777066968 | 30° C | 42% | 1010.8 hPa | 0 mm | 2.68 m/s, 80° | - | - |
| 1777066781 | 30° C | 42% | 1010.8 hPa | 0 mm | 2.68 m/s, 80° | - | - |
| 1777066624 | 30° C | 41% | 1010.9 hPa | 0 mm | 0.45 m/s, 103° | - | - |
| 1777066481 | 30° C | 41% | 1010.9 hPa | 0 mm | 0.45 m/s, 103° | - | - |
| 1777066293 | 30° C | 41% | 1011 hPa | 0 mm | 1.79 m/s, 125° | - | - |
| 1777066181 | 30° C | 41% | 1011 hPa | 0 mm | 1.79 m/s, 125° | - | - |
| 1777066028 | 30° C | 41% | 1010.9 hPa | 0 mm | 1.79 m/s, 60° | - | - |
| 1777065882 | 30° C | 41% | 1010.9 hPa | 0 mm | 1.79 m/s, 60° | - | - |
| 1777065723 | 30° C | 40% | 1011 hPa | 0 mm | 2.24 m/s, 104° | - | - |
| 1777065582 | 30° C | 40% | 1011 hPa | 0 mm | 2.24 m/s, 104° | - | - |
| 1777065434 | 30° C | 36% | 1011.1 hPa | 0 mm | 2.24 m/s, 84° | - | - |
* Rain latest hour (hover to see other rain measurements)
** Current wind speed in m/s (hover to see current wind gust speed)